Location: Plainartige
(45.6866°N, 1.7993°E)
Time: 17:41:14
(UTC+00:00)

deb r/b Ablestar - Pass Details

Date: 25 September 2021
Orbit: 843 x 997 km, 67.7° (Epoch: 21 October)

Event Time Altitude Azimuth Distance (km) Brightness Sun altitude
Rises 20:10:39 0° 333° (NNW) 3,411 ? -25.5°
Reaches altitude 10° 20:13:25 10° 344° (NNW) 2,476 ? -26.0°
Enters shadow 20:18:02 30° 38° (NE) 1,496 ? -26.7°
